Regional Weather Roundup
Issued by NWS

Home | Current Version | Previous Version | Graphics & Text | Print | Product List | Glossary Off
Versions: 1 2 3 4 5 6 7 8 9 10 11 12 13 14 15 16 17 18 19 20 21 22 23 24 25 26 27 28 29 30 31 32 33 34 35 36 37 38 39 40 41 42 43 44 45 46 47 48 49 50

000
ASUS43 KFSD 030910
RWRSD

WEATHER ROUNDUP FOR SOUTH DAKOTA
NATIONAL WEATHER SERVICE SIOUX FALLS SD
300 AM CST TUE MAR 03 2015

NOTE: "FAIR" INDICATES FEW OR NO CLOUDS BELOW 12,000 FEET WITH NO
SIGNIFICANT WEATHER AND/OR OBSTRUCTIONS TO VISIBILITY.


SDZ001>005-009-010-012>017-031000-
NORTHWEST AND NORTH CENTRAL SOUTH DAKOTA

CITY           SKY/WX    TMP DP  RH WIND       PRES   REMARKS
BUFFALO          N/A     16  10  77 NW25G33   29.80R WCI  -3
FAITH            N/A     17  12  80 N29G36    29.78R WCI  -2
MOBRIDGE       CLOUDY    21  12  68 N26G37    29.76R WCI   4
$$

SDZ012>016-024>037-041>051-057-063-072>074-031000-
SOUTHWEST AND SOUTH CENTRAL SOUTH DAKOTA

CITY           SKY/WX    TMP DP  RH WIND       PRES   REMARKS
RAPID CTY ARPT LGT SNOW  20  17  88 N33G45    29.78R VSB 3/4 WCI   0
PIERRE         SNOW      26  24  92 N32G44    29.66F VSB 1/4 WCI   9
CUSTER         LGT SNOW  19  13  77 N15G25    29.60R WCI   5
ELLSWORTH AFB  HVY SNOW  20  18  89 N25G35    29.77R VSB 0   WCI   3
PHILIP         LGT SNOW  26  21  81 N32G40    29.71R WCI   9
PINE RIDGE     LGT SNOW  29  24  82 N21G32    29.65R WCI  16
SPEARFISH      LGT SNOW  14  10  85 MISG      29.85R VSB 3/4
WINNER         CLOUDY    32  18  56 SW6       29.64F WCI  26
$$

SDZ004>011-016>023-039-040-031000-
NORTHEAST SOUTH DAKOTA

CITY           SKY/WX    TMP DP  RH WIND       PRES   REMARKS
ABERDEEN       LGT SNOW  29  24  82 S10       29.71R VSB 3/4 WCI  20
WATERTOWN      FLURRIES  25  20  81 S9        29.70F WCI  15
SISSETON         N/A     27  25  92 S14       29.72F WCI  16
$$

SDZ017-020-022-023-036>040-048>070-031000-
SOUTHEAST SOUTH DAKOTA

CITY           SKY/WX    TMP DP  RH WIND       PRES   REMARKS
SIOUX FALLS    CLOUDY    25  19  78 S7        29.73F WCI  17
HURON          CLOUDY    28  20  71 SE7       29.69F WCI  21
CHAMBERLAIN    CLOUDY    30  17  58 W3        29.65F
MITCHELL       CLOUDY    27  20  75 SE8       29.70F WCI  19
YANKTON        CLOUDY    28  18  64 SE7       29.72F WCI  21
$$

ABBREVIATIONS USED IN REMARKS
   TC - TEMPERATURE IN CELSIUS
  WCI - WIND CHILL INDEX
   HX - HEAT INDEX
  VSB - VISIBILITY




USA.gov is the U.S. government's official web portal to all federal, state and local government web resources and services.